Time,TemperatureF,DewpointF,PressureIn,WindDirection,WindDirectionDegrees,WindSpeedMPH,WindSpeedGustMPH,Humidity,HourlyPrecipIn,Conditions,Clouds,dailyrainin,SoftwareType,DateUTC
2013-03-11 00:03:00,37.3,25.9,30.17,SE,138,0.0,0.0,63,0.00,,---,0.00,VWS V14.00,2013-03-11 07:03:00,
2013-03-11 00:08:00,37.4,25.6,30.16,SE,138,0.0,0.0,62,0.00,,---,0.00,VWS V14.00,2013-03-11 07:08:00,
2013-03-11 00:13:00,37.2,25.4,30.16,SE,138,0.0,0.0,62,0.00,,---,0.00,VWS V14.00,2013-03-11 07:13:00,
2013-03-11 00:18:00,37.2,25.8,30.16,SE,138,0.0,0.0,63,0.00,,---,0.00,VWS V14.00,2013-03-11 07:18:00,
2013-03-11 00:23:00,37.4,25.6,30.16,SE,138,0.0,0.0,62,0.00,,---,0.00,VWS V14.00,2013-03-11 07:23:00,
2013-03-11 00:28:00,37.8,26.0,30.16,SE,138,0.0,0.0,62,0.00,,---,0.00,VWS V14.00,2013-03-11 07:28:00,
2013-03-11 00:33:00,37.9,25.7,30.16,SE,138,0.0,0.0,61,0.00,,---,0.00,VWS V14.00,2013-03-11 07:33:00,
2013-03-11 00:38:00,38.0,25.8,30.17,SE,138,0.0,0.0,61,0.00,,---,0.00,VWS V14.00,2013-03-11 07:38:00,
2013-03-11 00:43:00,38.0,25.8,30.16,SE,138,0.0,0.0,61,0.00,,---,0.00,VWS V14.00,2013-03-11 07:43:00,
2013-03-11 00:48:00,37.9,25.3,30.16,SE,138,0.0,0.0,60,0.00,,---,0.00,VWS V14.00,2013-03-11 07:48:00,
2013-03-11 00:53:00,37.8,25.6,30.16,SE,138,0.0,0.0,61,0.00,,---,0.00,VWS V14.00,2013-03-11 07:53:00,
2013-03-11 00:58:00,37.9,25.7,30.16,SE,138,0.0,0.0,61,0.00,,---,0.00,VWS V14.00,2013-03-11 07:58:00,
2013-03-11 01:03:00,37.9,25.7,30.16,SE,138,0.0,0.0,61,0.00,,---,0.00,VWS V14.00,2013-03-11 08:03:00,
2013-03-11 01:08:00,37.6,25.8,30.17,SE,138,0.0,0.0,62,0.00,,---,0.00,VWS V14.00,2013-03-11 08:08:00,
2013-03-11 01:13:00,37.7,25.9,30.17,SE,138,0.0,0.0,62,0.00,,---,0.00,VWS V14.00,2013-03-11 08:13:00,
2013-03-11 01:18:00,38.0,25.8,30.17,SE,138,0.0,0.0,61,0.00,,---,0.00,VWS V14.00,2013-03-11 08:18:00,
2013-03-11 01:23:00,37.9,25.7,30.17,SE,138,0.0,0.0,61,0.00,,---,0.00,VWS V14.00,2013-03-11 08:23:00,
2013-03-11 01:28:00,37.8,25.6,30.17,SE,138,0.0,0.0,61,0.00,,---,0.00,VWS V14.00,2013-03-11 08:28:00,
2013-03-11 01:33:00,38.0,25.8,30.17,SE,138,0.0,0.0,61,0.00,,---,0.00,VWS V14.00,2013-03-11 08:33:00,
2013-03-11 01:38:00,38.2,26.0,30.17,SE,138,0.0,0.0,61,0.00,,---,0.00,VWS V14.00,2013-03-11 08:38:00,
2013-03-11 01:43:00,38.5,25.8,30.17,SE,138,0.0,0.0,60,0.00,,---,0.00,VWS V14.00,2013-03-11 08:43:00,
2013-03-11 01:48:00,38.7,26.0,30.17,SE,138,0.0,0.0,60,0.00,,---,0.00,VWS V14.00,2013-03-11 08:48:00,
2013-03-11 01:53:00,38.7,25.2,30.17,SE,138,0.0,0.0,58,0.00,,---,0.00,VWS V14.00,2013-03-11 08:53:00,
2013-03-11 01:58:00,37.2,23.8,30.17,SE,138,0.0,0.0,58,0.00,,---,0.00,VWS V14.00,2013-03-11 08:58:00,
2013-03-11 02:03:00,35.4,24.1,30.17,SE,138,0.0,0.0,63,0.00,,---,0.00,VWS V14.00,2013-03-11 09:03:00,
2013-03-11 02:08:00,35.5,24.5,30.17,SE,138,0.0,0.0,64,0.00,,---,0.00,VWS V14.00,2013-03-11 09:08:00,
2013-03-11 02:13:00,35.0,23.3,30.17,SE,138,0.0,0.0,62,0.00,,---,0.00,VWS V14.00,2013-03-11 09:13:00,
2013-03-11 02:18:00,33.7,22.8,30.17,SE,138,0.0,0.0,64,0.00,,---,0.00,VWS V14.00,2013-03-11 09:18:00,
2013-03-11 02:23:00,32.3,22.2,30.17,SE,138,0.0,0.0,66,0.00,,---,0.00,VWS V14.00,2013-03-11 09:23:00,
2013-03-11 02:28:00,31.9,22.5,30.17,SE,138,0.0,0.0,68,0.00,,---,0.00,VWS V14.00,2013-03-11 09:28:00,
2013-03-11 02:33:00,31.6,23.0,30.17,SE,138,0.0,0.0,70,0.00,,---,0.00,VWS V14.00,2013-03-11 09:33:00,
2013-03-11 02:38:00,31.3,22.7,30.17,SE,138,0.0,0.0,70,0.00,,---,0.00,VWS V14.00,2013-03-11 09:38:00,
2013-03-11 02:43:00,30.7,22.1,30.17,SE,138,0.0,0.0,70,0.00,,---,0.00,VWS V14.00,2013-03-11 09:43:00,
2013-03-11 02:48:00,30.5,22.9,30.17,SE,138,0.0,0.0,73,0.00,,---,0.00,VWS V14.00,2013-03-11 09:48:00,
2013-03-11 02:53:00,30.5,22.9,30.17,SE,138,0.0,0.0,73,0.00,,---,0.00,VWS V14.00,2013-03-11 09:53:00,
2013-03-11 02:58:00,31.4,24.1,30.17,SE,138,0.0,0.0,74,0.00,,---,0.00,VWS V14.00,2013-03-11 09:58:00,
2013-03-11 03:03:00,32.0,24.0,30.17,SE,138,0.0,0.0,72,0.00,,---,0.00,VWS V14.00,2013-03-11 10:03:00,
2013-03-11 03:08:00,32.9,24.2,30.17,SE,138,0.0,0.0,70,0.00,,---,0.00,VWS V14.00,2013-03-11 10:08:00,
2013-03-11 03:13:00,33.7,24.6,30.16,SE,138,0.0,0.0,69,0.00,,---,0.00,VWS V14.00,2013-03-11 10:13:00,
2013-03-11 03:18:00,33.4,23.3,30.17,SE,138,0.0,0.0,66,0.00,,---,0.00,VWS V14.00,2013-03-11 10:18:00,
2013-03-11 03:23:00,32.8,23.1,30.16,SE,138,0.0,0.0,67,0.00,,---,0.00,VWS V14.00,2013-03-11 10:23:00,
2013-03-11 03:28:00,32.5,23.5,30.16,SE,138,0.0,0.0,69,0.00,,---,0.00,VWS V14.00,2013-03-11 10:28:00,
2013-03-11 03:33:00,32.4,24.1,30.16,SE,138,0.0,0.0,71,0.00,,---,0.00,VWS V14.00,2013-03-11 10:33:00,
2013-03-11 03:38:00,33.2,24.8,30.16,SE,138,0.0,0.0,71,0.00,,---,0.00,VWS V14.00,2013-03-11 10:38:00,
2013-03-11 03:43:00,33.5,24.8,30.16,SE,138,0.0,0.0,70,0.00,,---,0.00,VWS V14.00,2013-03-11 10:43:00,
2013-03-11 03:48:00,34.6,25.5,30.16,SE,138,0.0,0.0,69,0.00,,---,0.00,VWS V14.00,2013-03-11 10:48:00,
2013-03-11 03:53:00,35.5,25.6,30.16,SE,138,0.0,0.0,67,0.00,,---,0.00,VWS V14.00,2013-03-11 10:53:00,
2013-03-11 03:58:00,35.9,25.3,30.16,SE,138,0.0,0.0,65,0.00,,---,0.00,VWS V14.00,2013-03-11 10:58:00,
2013-03-11 04:03:00,36.4,25.8,30.16,SE,138,0.0,0.0,65,0.00,,---,0.00,VWS V14.00,2013-03-11 11:03:00,
2013-03-11 04:08:00,36.8,25.8,30.16,SE,138,0.0,0.0,64,0.00,,---,0.00,VWS V14.00,2013-03-11 11:08:00,
2013-03-11 04:13:00,37.0,25.6,30.16,SE,138,0.0,0.0,63,0.00,,---,0.00,VWS V14.00,2013-03-11 11:13:00,
2013-03-11 04:18:00,36.8,25.8,30.16,SE,138,0.0,0.0,64,0.00,,---,0.00,VWS V14.00,2013-03-11 11:18:00,
2013-03-11 04:24:00,37.1,26.1,30.16,SE,138,0.0,0.0,64,0.00,,---,0.00,VWS V14.00,2013-03-11 11:24:00,
2013-03-11 04:29:00,37.5,26.1,30.16,SE,138,0.0,0.0,63,0.00,,---,0.00,VWS V14.00,2013-03-11 11:29:00,
2013-03-11 04:34:00,37.8,26.0,30.16,SE,138,0.0,0.0,62,0.00,,---,0.00,VWS V14.00,2013-03-11 11:34:00,
2013-03-11 04:39:00,38.0,26.1,30.16,SE,138,0.0,0.0,62,0.00,,---,0.00,VWS V14.00,2013-03-11 11:39:00,
2013-03-11 04:44:00,37.7,25.5,30.16,SE,138,0.0,0.0,61,0.00,,---,0.00,VWS V14.00,2013-03-11 11:44:00,
2013-03-11 04:49:00,37.6,25.8,30.16,SE,138,0.0,0.0,62,0.00,,---,0.00,VWS V14.00,2013-03-11 11:49:00,
2013-03-11 04:54:00,37.4,25.6,30.16,SE,138,0.0,0.0,62,0.00,,---,0.00,VWS V14.00,2013-03-11 11:54:00,
2013-03-11 04:59:00,37.4,25.6,30.16,SE,138,0.0,0.0,62,0.00,,---,0.00,VWS V14.00,2013-03-11 11:59:00,
2013-03-11 05:04:00,37.5,25.7,30.16,SE,138,0.0,0.0,62,0.00,,---,0.00,VWS V14.00,2013-03-11 12:04:00,
2013-03-11 05:09:00,37.8,26.0,30.16,SE,138,0.0,0.0,62,0.00,,---,0.00,VWS V14.00,2013-03-11 12:09:00,
2013-03-11 05:14:00,38.0,25.4,30.16,SE,138,0.0,0.0,60,0.00,,---,0.00,VWS V14.00,2013-03-11 12:14:00,
2013-03-11 05:19:00,37.3,24.7,30.16,SE,138,0.0,0.0,60,0.00,,---,0.00,VWS V14.00,2013-03-11 12:19:00,
2013-03-11 05:24:00,36.8,25.4,30.16,SE,138,3.0,3.0,63,0.00,,---,0.00,VWS V14.00,2013-03-11 12:24:00,
2013-03-11 05:29:00,37.3,25.9,30.16,SE,138,0.0,5.0,63,0.00,,---,0.00,VWS V14.00,2013-03-11 12:29:00,
2013-03-11 05:34:00,37.6,25.8,30.16,SE,138,0.0,0.0,62,0.00,,---,0.00,VWS V14.00,2013-03-11 12:34:00,
2013-03-11 05:39:00,37.7,25.9,30.16,SE,138,2.0,3.0,62,0.00,,---,0.00,VWS V14.00,2013-03-11 12:39:00,
2013-03-11 05:44:00,37.5,25.7,30.16,SE,138,0.0,3.0,62,0.00,,---,0.00,VWS V14.00,2013-03-11 12:44:00,
2013-03-11 05:49:00,37.5,26.1,30.16,SE,138,0.0,3.0,63,0.00,,---,0.00,VWS V14.00,2013-03-11 12:49:00,
2013-03-11 05:54:00,37.6,25.8,30.16,SE,138,0.0,3.0,62,0.00,,---,0.00,VWS V14.00,2013-03-11 12:54:00,
2013-03-11 05:59:00,38.0,25.8,30.17,SE,138,0.0,3.0,61,0.00,,---,0.00,VWS V14.00,2013-03-11 12:59:00,
2013-03-11 06:04:00,37.9,24.9,30.17,SE,138,0.0,0.0,59,0.00,,---,0.00,VWS V14.00,2013-03-11 13:04:00,
2013-03-11 06:09:00,37.2,24.6,30.17,SE,138,0.0,0.0,60,0.00,,---,0.00,VWS V14.00,2013-03-11 13:09:00,
2013-03-11 06:14:00,36.5,24.3,30.17,SE,138,0.0,0.0,61,0.00,,---,0.00,VWS V14.00,2013-03-11 13:14:00,
2013-03-11 06:19:00,35.2,23.1,30.18,SE,138,0.0,0.0,61,0.00,,---,0.00,VWS V14.00,2013-03-11 13:19:00,
2013-03-11 06:24:00,34.2,23.3,30.18,SE,138,0.0,0.0,64,0.00,,---,0.00,VWS V14.00,2013-03-11 13:24:00,
2013-03-11 06:29:00,33.5,23.4,30.18,SE,138,0.0,0.0,66,0.00,,---,0.00,VWS V14.00,2013-03-11 13:29:00,
2013-03-11 06:34:00,32.1,21.3,30.18,SE,138,0.0,0.0,64,0.00,,---,0.00,VWS V14.00,2013-03-11 13:34:00,
2013-03-11 06:39:00,31.9,23.9,30.18,SE,138,0.0,0.0,72,0.00,,---,0.00,VWS V14.00,2013-03-11 13:39:00,
2013-03-11 06:44:00,31.2,22.2,30.17,SE,138,0.0,0.0,69,0.00,,---,0.00,VWS V14.00,2013-03-11 13:44:00,
2013-03-11 06:49:00,30.8,22.5,30.18,SE,138,0.0,0.0,71,0.00,,---,0.00,VWS V14.00,2013-03-11 13:49:00,
2013-03-11 06:54:00,30.6,22.3,30.18,SE,138,0.0,0.0,71,0.00,,---,0.00,VWS V14.00,2013-03-11 13:54:00,
2013-03-11 06:59:00,30.3,22.7,30.18,SE,138,0.0,0.0,73,0.00,,---,0.00,VWS V14.00,2013-03-11 13:59:00,
2013-03-11 07:04:00,29.9,22.0,30.18,SE,138,0.0,0.0,72,0.00,,---,0.00,VWS V14.00,2013-03-11 14:04:00,
2013-03-11 07:09:00,30.3,24.0,30.17,SE,138,0.0,0.0,77,0.00,,---,0.00,VWS V14.00,2013-03-11 14:09:00,
2013-03-11 07:14:00,32.0,25.0,30.17,SE,138,0.0,0.0,75,0.00,,---,0.00,VWS V14.00,2013-03-11 14:14:00,
2013-03-11 07:19:00,33.0,26.0,30.18,SE,138,0.0,0.0,75,0.00,,---,0.00,VWS V14.00,2013-03-11 14:19:00,
2013-03-11 07:24:00,34.3,26.9,30.18,SE,138,0.0,0.0,74,0.00,,---,0.00,VWS V14.00,2013-03-11 14:24:00,
2013-03-11 07:29:00,36.3,28.5,30.18,SE,138,0.0,0.0,73,0.00,,---,0.00,VWS V14.00,2013-03-11 14:29:00,
2013-03-11 07:34:00,38.4,29.8,30.18,SE,138,0.0,0.0,71,0.00,,---,0.00,VWS V14.00,2013-03-11 14:34:00,
2013-03-11 07:39:00,40.1,30.8,30.18,SE,138,0.0,0.0,69,0.00,,---,0.00,VWS V14.00,2013-03-11 14:39:00,
2013-03-11 07:44:00,41.8,30.5,30.18,SE,138,0.0,0.0,64,0.00,,---,0.00,VWS V14.00,2013-03-11 14:44:00,
2013-03-11 07:49:00,43.4,30.5,30.19,SE,138,0.0,0.0,60,0.00,,---,0.00,VWS V14.00,2013-03-11 14:49:00,
2013-03-11 07:54:00,44.5,29.8,30.19,SE,138,0.0,0.0,56,0.00,,---,0.00,VWS V14.00,2013-03-11 14:54:00,
2013-03-11 08:00:00,45.5,29.8,30.19,SE,138,0.0,0.0,54,0.00,,---,0.00,VWS V14.00,2013-03-11 15:00:00,
2013-03-11 08:04:00,46.1,29.5,30.19,SE,138,0.0,3.0,52,0.00,,---,0.00,VWS V14.00,2013-03-11 15:04:00,
2013-03-11 08:09:00,46.8,29.6,30.19,SE,138,0.0,3.0,51,0.00,,---,0.00,VWS V14.00,2013-03-11 15:09:00,
2013-03-11 08:14:00,47.5,29.8,30.19,SE,138,0.0,3.0,50,0.00,,---,0.00,VWS V14.00,2013-03-11 15:14:00,
2013-03-11 08:20:00,48.5,29.2,30.19,SE,138,0.0,3.0,47,0.00,,---,0.00,VWS V14.00,2013-03-11 15:20:00,
2013-03-11 08:25:00,49.6,29.1,30.19,SE,138,0.0,3.0,45,0.00,,---,0.00,VWS V14.00,2013-03-11 15:25:00,
2013-03-11 08:30:00,49.6,29.1,30.19,SE,138,0.0,3.0,45,0.00,,---,0.00,VWS V14.00,2013-03-11 15:30:00,
2013-03-11 08:35:00,49.5,29.1,30.18,SE,138,0.0,0.0,45,0.00,,---,0.00,VWS V14.00,2013-03-11 15:35:00,
2013-03-11 08:40:00,50.1,29.0,30.18,SE,138,0.0,0.0,44,0.00,,---,0.00,VWS V14.00,2013-03-11 15:40:00,
2013-03-11 08:45:00,50.5,28.9,30.18,SE,138,0.0,0.0,43,0.00,,---,0.00,VWS V14.00,2013-03-11 15:45:00,
2013-03-11 08:50:00,51.1,28.8,30.18,SE,128,0.0,5.0,42,0.00,,---,0.00,VWS V14.00,2013-03-11 15:50:00,
2013-03-11 08:55:00,51.6,29.3,30.18,SE,140,0.0,5.0,42,0.00,,---,0.00,VWS V14.00,2013-03-11 15:55:00,
2013-03-11 09:00:00,52.0,27.8,30.18,SE,140,0.0,5.0,39,0.00,,---,0.00,VWS V14.00,2013-03-11 16:00:00,
2013-03-11 09:05:00,52.2,28.0,30.19,SE,141,0.0,4.0,39,0.00,,---,0.00,VWS V14.00,2013-03-11 16:05:00,
2013-03-11 09:10:00,52.6,28.4,30.19,SE,141,0.0,4.0,39,0.00,,---,0.00,VWS V14.00,2013-03-11 16:10:00,
2013-03-11 09:15:00,52.9,28.6,30.19,SSE,150,0.0,4.0,39,0.00,,---,0.00,VWS V14.00,2013-03-11 16:15:00,
2013-03-11 09:20:00,53.1,28.8,30.19,SSE,149,4.0,4.0,39,0.00,,---,0.00,VWS V14.00,2013-03-11 16:20:00,
2013-03-11 09:25:00,53.7,29.4,30.19,SE,145,0.0,4.0,39,0.00,,---,0.00,VWS V14.00,2013-03-11 16:25:00,
2013-03-11 09:30:00,54.1,29.1,30.19,SSE,147,0.0,7.0,38,0.00,,---,0.00,VWS V14.00,2013-03-11 16:30:00,
2013-03-11 09:35:00,54.4,28.7,30.19,SSE,155,0.0,6.0,37,0.00,,---,0.00,VWS V14.00,2013-03-11 16:35:00,
2013-03-11 09:40:00,54.6,28.2,30.19,SW,219,0.0,6.0,36,0.00,,---,0.00,VWS V14.00,2013-03-11 16:40:00,
2013-03-11 09:45:00,54.2,27.9,30.19,SW,219,0.0,6.0,36,0.00,,---,0.00,VWS V14.00,2013-03-11 16:45:00,
2013-03-11 09:50:00,54.6,28.2,30.20,SE,143,0.0,6.0,36,0.00,,---,0.00,VWS V14.00,2013-03-11 16:50:00,
2013-03-11 09:55:00,55.3,28.1,30.20,SE,143,0.0,6.0,35,0.00,,---,0.00,VWS V14.00,2013-03-11 16:55:00,
2013-03-11 10:00:00,55.1,28.0,30.20,North,350,0.0,6.0,35,0.00,,---,0.00,VWS V14.00,2013-03-11 17:00:00,
2013-03-11 10:05:00,54.8,28.4,30.20,NW,311,0.0,10.0,36,0.00,,---,0.00,VWS V14.00,2013-03-11 17:05:00,
2013-03-11 10:10:00,54.4,28.7,30.20,WNW,286,0.0,10.0,37,0.00,,---,0.00,VWS V14.00,2013-03-11 17:10:00,
2013-03-11 10:15:00,54.6,29.5,30.19,WNW,289,0.0,10.0,38,0.00,,---,0.00,VWS V14.00,2013-03-11 17:15:00,
2013-03-11 10:20:00,55.3,28.8,30.19,WNW,286,0.0,10.0,36,0.00,,---,0.00,VWS V14.00,2013-03-11 17:20:00,
2013-03-11 10:25:00,56.1,28.8,30.19,West,279,0.0,10.0,35,0.00,,---,0.00,VWS V14.00,2013-03-11 17:25:00,
2013-03-11 10:30:00,56.6,27.9,30.19,SW,226,0.0,10.0,33,0.00,,---,0.00,VWS V14.00,2013-03-11 17:30:00,
2013-03-11 10:35:00,56.5,27.8,30.19,SSW,209,0.0,10.0,33,0.00,,---,0.00,VWS V14.00,2013-03-11 17:35:00,
2013-03-11 10:40:00,56.8,27.3,30.18,South,171,0.0,10.0,32,0.00,,---,0.00,VWS V14.00,2013-03-11 17:40:00,
2013-03-11 10:45:00,57.1,27.5,30.18,SSE,167,2.0,10.0,32,0.00,,---,0.00,VWS V14.00,2013-03-11 17:45:00,
2013-03-11 10:50:00,57.7,27.3,30.18,SE,139,0.0,10.0,31,0.00,,---,0.00,VWS V14.00,2013-03-11 17:50:00,
2013-03-11 10:55:00,58.0,28.3,30.18,SE,140,0.0,10.0,32,0.00,,---,0.00,VWS V14.00,2013-03-11 17:55:00,
2013-03-11 11:00:00,58.9,28.3,30.18,SE,140,0.0,10.0,31,0.00,,---,0.00,VWS V14.00,2013-03-11 18:00:00,
2013-03-11 11:05:00,59.4,28.0,30.18,SE,140,0.0,0.0,30,0.00,,---,0.00,VWS V14.00,2013-03-11 18:05:00,
2013-03-11 11:10:00,59.6,28.1,30.17,South,173,0.0,6.0,30,0.00,,---,0.00,VWS V14.00,2013-03-11 18:10:00,
2013-03-11 11:15:00,59.7,27.4,30.17,ESE,117,0.0,8.0,29,0.00,,---,0.00,VWS V14.00,2013-03-11 18:15:00,
2013-03-11 11:20:00,59.6,27.3,30.17,ESE,119,0.0,8.0,29,0.00,,---,0.00,VWS V14.00,2013-03-11 18:20:00,
2013-03-11 11:25:00,59.3,27.1,30.17,WSW,254,5.0,8.0,29,0.00,,---,0.00,VWS V14.00,2013-03-11 18:25:00,
2013-03-11 11:30:00,59.2,27.0,30.16,West,261,0.0,8.0,29,0.00,,---,0.00,VWS V14.00,2013-03-11 18:30:00,
2013-03-11 11:35:00,59.4,27.2,30.16,West,261,0.0,0.0,29,0.00,,---,0.00,VWS V14.00,2013-03-11 18:35:00,
2013-03-11 11:40:00,59.7,26.6,30.16,SW,227,3.0,9.0,28,0.00,,---,0.00,VWS V14.00,2013-03-11 18:40:00,
2013-03-11 11:45:00,59.5,27.2,30.16,SW,236,1.0,9.0,29,0.00,,---,0.00,VWS V14.00,2013-03-11 18:45:00,
2013-03-11 11:50:00,59.5,26.4,30.16,West,281,8.0,9.0,28,0.00,,---,0.00,VWS V14.00,2013-03-11 18:50:00,
2013-03-11 11:55:00,59.4,26.3,30.15,WSW,247,0.0,9.0,28,0.00,,---,0.00,VWS V14.00,2013-03-11 18:55:00,
2013-03-11 12:00:00,59.7,26.6,30.15,West,267,0.0,9.0,28,0.00,,---,0.00,VWS V14.00,2013-03-11 19:00:00,
2013-03-11 12:05:00,60.2,26.1,30.15,NNW,329,0.0,4.0,27,0.00,,---,0.00,VWS V14.00,2013-03-11 19:05:00,
2013-03-11 12:10:00,60.6,26.5,30.15,NE,41,0.0,4.0,27,0.00,,---,0.00,VWS V14.00,2013-03-11 19:10:00,
2013-03-11 12:15:00,60.9,26.7,30.15,WNW,294,0.0,6.0,27,0.00,,---,0.00,VWS V14.00,2013-03-11 19:15:00,
2013-03-11 12:20:00,61.1,26.9,30.15,West,261,3.0,9.0,27,0.00,,---,0.00,VWS V14.00,2013-03-11 19:20:00,
2013-03-11 12:25:00,61.0,26.8,30.14,West,269,0.0,9.0,27,0.00,,---,0.00,VWS V14.00,2013-03-11 19:25:00,
2013-03-11 12:31:00,61.1,26.9,30.14,SW,216,0.0,9.0,27,0.00,,---,0.00,VWS V14.00,2013-03-11 19:31:00,
2013-03-11 12:36:00,61.4,27.1,30.14,North,355,0.0,6.0,27,0.00,,---,0.00,VWS V14.00,2013-03-11 19:36:00,
2013-03-11 12:41:00,61.4,26.2,30.13,SW,217,3.0,10.0,26,0.00,,---,0.00,VWS V14.00,2013-03-11 19:41:00,
2013-03-11 12:46:00,61.5,25.4,30.13,SSW,193,0.0,10.0,25,0.00,,---,0.00,VWS V14.00,2013-03-11 19:46:00,
2013-03-11 12:51:00,62.0,25.8,30.13,West,265,5.0,11.0,25,0.00,,---,0.00,VWS V14.00,2013-03-11 19:51:00,
2013-03-11 12:56:00,61.9,25.7,30.13,NW,315,3.0,11.0,25,0.00,,---,0.00,VWS V14.00,2013-03-11 19:56:00,
2013-03-11 13:01:00,62.0,25.8,30.12,SSW,213,0.0,11.0,25,0.00,,---,0.00,VWS V14.00,2013-03-11 20:01:00,
2013-03-11 13:06:00,62.7,27.4,30.12,West,269,5.0,10.0,26,0.00,,---,0.00,VWS V14.00,2013-03-11 20:06:00,
2013-03-11 13:11:00,62.7,26.4,30.12,NW,312,1.0,10.0,25,0.00,,---,0.00,VWS V14.00,2013-03-11 20:11:00,
2013-03-11 13:16:00,62.9,26.6,30.12,WNW,292,6.0,10.0,25,0.00,,---,0.00,VWS V14.00,2013-03-11 20:16:00,
2013-03-11 13:21:00,63.1,25.8,30.11,WSW,251,0.0,10.0,24,0.00,,---,0.00,VWS V14.00,2013-03-11 20:21:00,
2013-03-11 13:26:00,62.9,26.6,30.11,WNW,282,2.0,10.0,25,0.00,,---,0.00,VWS V14.00,2013-03-11 20:26:00,
2013-03-11 13:31:00,63.1,26.7,30.10,NNE,32,4.0,10.0,25,0.00,,---,0.00,VWS V14.00,2013-03-11 20:31:00,
2013-03-11 13:36:00,63.2,25.8,30.10,NNE,17,0.0,7.0,24,0.00,,---,0.00,VWS V14.00,2013-03-11 20:36:00,
2013-03-11 13:42:00,63.2,24.8,30.10,East,101,0.0,7.0,23,0.00,,---,0.00,VWS V14.00,2013-03-11 20:42:00,
2013-03-11 13:47:00,63.6,26.2,30.10,West,265,4.0,7.0,24,0.00,,---,0.00,VWS V14.00,2013-03-11 20:47:00,
2013-03-11 13:52:00,63.4,25.0,30.09,West,281,0.0,10.0,23,0.00,,---,0.00,VWS V14.00,2013-03-11 20:52:00,
2013-03-11 13:57:00,63.8,25.3,30.09,SSW,202,6.0,10.0,23,0.00,,---,0.00,VWS V14.00,2013-03-11 20:57:00,
2013-03-11 14:02:00,64.0,24.4,30.09,SSW,200,2.0,6.0,22,0.00,,---,0.00,VWS V14.00,2013-03-11 21:02:00,
2013-03-11 14:07:00,64.1,24.5,30.08,South,173,0.0,6.0,22,0.00,,---,0.00,VWS V14.00,2013-03-11 21:07:00,
2013-03-11 14:12:00,64.3,25.7,30.08,WSW,239,3.0,6.0,23,0.00,,---,0.00,VWS V14.00,2013-03-11 21:12:00,
2013-03-11 14:17:00,64.6,24.9,30.08,WNW,288,2.0,7.0,22,0.00,,---,0.00,VWS V14.00,2013-03-11 21:17:00,
2013-03-11 14:22:00,64.7,23.9,30.08,WNW,297,4.0,10.0,21,0.00,,---,0.00,VWS V14.00,2013-03-11 21:22:00,
2013-03-11 14:27:00,64.8,24.0,30.07,NW,316,7.0,10.0,21,0.00,,---,0.00,VWS V14.00,2013-03-11 21:27:00,
2013-03-11 14:32:00,64.8,22.8,30.07,WSW,252,5.0,8.0,20,0.00,,---,0.00,VWS V14.00,2013-03-11 21:32:00,
2013-03-11 14:37:00,64.6,23.8,30.07,NW,310,2.0,8.0,21,0.00,,---,0.00,VWS V14.00,2013-03-11 21:37:00,
2013-03-11 14:42:00,64.7,22.7,30.07,SSW,207,0.0,8.0,20,0.00,,---,0.00,VWS V14.00,2013-03-11 21:42:00,
2013-03-11 14:47:00,65.1,21.9,30.07,WNW,297,6.0,8.0,19,0.00,,---,0.00,VWS V14.00,2013-03-11 21:47:00,
2013-03-11 14:52:00,65.2,23.1,30.06,SW,228,4.0,8.0,20,0.00,,---,0.00,VWS V14.00,2013-03-11 21:52:00,
2013-03-11 14:57:00,65.6,22.3,30.06,WSW,250,11.0,12.0,19,0.00,,---,0.00,VWS V14.00,2013-03-11 21:57:00,
2013-03-11 15:02:00,65.7,22.3,30.06,SSW,197,0.0,5.0,19,0.00,,---,0.00,VWS V14.00,2013-03-11 22:02:00,
2013-03-11 15:08:00,65.7,22.3,30.06,SW,224,0.0,6.0,19,0.00,,---,0.00,VWS V14.00,2013-03-11 22:08:00,
2013-03-11 15:13:00,65.9,22.5,30.06,West,269,4.0,10.0,19,0.00,,---,0.00,VWS V14.00,2013-03-11 22:13:00,
2013-03-11 15:18:00,65.6,22.3,30.06,West,267,5.0,10.0,19,0.00,,---,0.00,VWS V14.00,2013-03-11 22:18:00,
2013-03-11 15:23:00,65.4,22.1,30.05,WSW,248,3.0,11.0,19,0.00,,---,0.00,VWS V14.00,2013-03-11 22:23:00,
2013-03-11 15:28:00,65.6,21.0,30.05,SW,231,2.0,11.0,18,0.00,,---,0.00,VWS V14.00,2013-03-11 22:28:00,
2013-03-11 15:33:00,65.8,21.1,30.04,WSW,252,6.0,6.0,18,0.00,,---,0.00,VWS V14.00,2013-03-11 22:33:00,
2013-03-11 15:38:00,66.1,21.4,30.04,West,267,1.0,17.0,18,0.00,,---,0.00,VWS V14.00,2013-03-11 22:38:00,
2013-03-11 15:43:00,65.9,21.2,30.04,WNW,286,4.0,17.0,18,0.00,,---,0.00,VWS V14.00,2013-03-11 22:43:00,
2013-03-11 15:48:00,66.0,21.3,30.05,WNW,286,4.0,17.0,18,0.00,,---,0.00,VWS V14.00,2013-03-11 22:48:00,
2013-03-11 15:53:00,65.7,21.1,30.05,West,275,0.0,17.0,18,0.00,,---,0.00,VWS V14.00,2013-03-11 22:53:00,
2013-03-11 15:58:00,66.0,21.3,30.05,West,265,2.0,17.0,18,0.00,,---,0.00,VWS V14.00,2013-03-11 22:58:00,
2013-03-11 16:03:00,66.1,20.0,30.05,WNW,287,5.0,8.0,17,0.00,,---,0.00,VWS V14.00,2013-03-11 23:03:00,
2013-03-11 16:08:00,66.0,20.0,30.05,WNW,286,3.0,12.0,17,0.00,,---,0.00,VWS V14.00,2013-03-11 23:08:00,
2013-03-11 16:13:00,65.6,19.6,30.05,WNW,287,0.0,12.0,17,0.00,,---,0.00,VWS V14.00,2013-03-11 23:13:00,
2013-03-11 16:18:00,65.6,18.2,30.05,West,277,2.0,12.0,16,0.00,,---,0.00,VWS V14.00,2013-03-11 23:18:00,
2013-03-11 16:23:00,65.6,18.2,30.04,SW,233,0.0,12.0,16,0.00,,---,0.00,VWS V14.00,2013-03-11 23:23:00,
2013-03-11 16:28:00,66.1,18.6,30.04,SW,223,5.0,12.0,16,0.00,,---,0.00,VWS V14.00,2013-03-11 23:28:00,
2013-03-11 16:33:00,65.9,18.5,30.04,West,273,3.0,9.0,16,0.00,,---,0.00,VWS V14.00,2013-03-11 23:33:00,
2013-03-11 16:38:00,65.8,18.4,30.04,West,277,1.0,11.0,16,0.00,,---,0.00,VWS V14.00,2013-03-11 23:38:00,
2013-03-11 16:43:00,65.8,16.9,30.04,West,269,3.0,11.0,15,0.00,,---,0.00,VWS V14.00,2013-03-11 23:43:00,
2013-03-11 16:48:00,65.8,16.9,30.03,NW,319,4.0,12.0,15,0.00,,---,0.00,VWS V14.00,2013-03-11 23:48:00,
2013-03-11 16:53:00,65.6,16.7,30.03,West,269,3.0,12.0,15,0.00,,---,0.00,VWS V14.00,2013-03-11 23:53:00,
2013-03-11 16:58:00,65.7,16.8,30.03,WNW,300,2.0,12.0,15,0.00,,---,0.00,VWS V14.00,2013-03-11 23:58:00,
2013-03-11 17:03:00,65.7,15.2,30.03,WNW,291,5.0,10.0,14,0.00,,---,0.00,VWS V14.00,2013-03-12 00:03:00,
2013-03-11 17:08:00,65.3,14.9,30.02,WNW,287,6.0,10.0,14,0.00,,---,0.00,VWS V14.00,2013-03-12 00:08:00,
2013-03-11 17:13:00,65.0,14.7,30.02,WNW,299,2.0,10.0,14,0.00,,---,0.00,VWS V14.00,2013-03-12 00:13:00,
2013-03-11 17:18:00,64.9,14.6,30.02,West,263,4.0,10.0,14,0.00,,---,0.00,VWS V14.00,2013-03-12 00:18:00,
2013-03-11 17:23:00,64.8,16.1,30.03,WSW,246,5.0,10.0,15,0.00,,---,0.00,VWS V14.00,2013-03-12 00:23:00,
2013-03-11 17:28:00,64.8,16.1,30.03,WSW,255,2.0,10.0,15,0.00,,---,0.00,VWS V14.00,2013-03-12 00:28:00,
2013-03-11 17:33:00,64.6,15.9,30.02,WNW,291,3.0,10.0,15,0.00,,---,0.00,VWS V14.00,2013-03-12 00:33:00,
2013-03-11 17:38:00,64.2,15.6,30.03,West,278,3.0,10.0,15,0.00,,---,0.00,VWS V14.00,2013-03-12 00:38:00,
2013-03-11 17:43:00,64.0,15.4,30.03,West,276,0.0,10.0,15,0.00,,---,0.00,VWS V14.00,2013-03-12 00:43:00,
2013-03-11 17:48:00,63.8,16.8,30.03,West,268,2.0,10.0,16,0.00,,---,0.00,VWS V14.00,2013-03-12 00:48:00,
2013-03-11 17:53:00,63.5,16.5,30.03,West,268,0.0,10.0,16,0.00,,---,0.00,VWS V14.00,2013-03-12 00:53:00,
2013-03-11 17:58:00,63.1,17.6,30.03,West,268,0.0,10.0,17,0.00,,---,0.00,VWS V14.00,2013-03-12 00:58:00,
2013-03-11 18:03:00,62.6,17.2,30.03,West,268,0.0,3.0,17,0.00,,---,0.00,VWS V14.00,2013-03-12 01:03:00,
2013-03-11 18:08:00,61.8,17.9,30.03,West,268,0.0,3.0,18,0.00,,---,0.00,VWS V14.00,2013-03-12 01:08:00,
2013-03-11 18:13:00,60.8,19.5,30.03,West,269,1.0,5.0,20,0.00,,---,0.00,VWS V14.00,2013-03-12 01:13:00,
2013-03-11 18:18:00,60.0,22.1,30.03,West,267,0.0,5.0,23,0.00,,---,0.00,VWS V14.00,2013-03-12 01:18:00,
2013-03-11 18:23:00,59.2,22.5,30.03,West,267,0.0,5.0,24,0.00,,---,0.00,VWS V14.00,2013-03-12 01:23:00,
2013-03-11 18:28:00,58.3,22.6,30.03,West,267,0.0,5.0,25,0.00,,---,0.00,VWS V14.00,2013-03-12 01:28:00,
2013-03-11 18:33:00,57.3,22.7,30.03,West,267,0.0,0.0,26,0.00,,---,0.00,VWS V14.00,2013-03-12 01:33:00,
2013-03-11 18:38:00,56.4,22.0,30.04,West,267,0.0,0.0,26,0.00,,---,0.00,VWS V14.00,2013-03-12 01:38:00,
2013-03-11 18:44:00,55.7,22.3,30.04,West,267,0.0,0.0,27,0.00,,---,0.00,VWS V14.00,2013-03-12 01:44:00,
2013-03-11 18:48:00,54.9,21.6,30.04,West,267,0.0,0.0,27,0.00,,---,0.00,VWS V14.00,2013-03-12 01:48:00,
2013-03-11 18:53:00,53.9,21.6,30.04,West,267,0.0,0.0,28,0.00,,---,0.00,VWS V14.00,2013-03-12 01:53:00,
2013-03-11 18:59:00,52.7,20.5,30.04,West,267,0.0,0.0,28,0.00,,---,0.00,VWS V14.00,2013-03-12 01:59:00,
2013-03-11 19:04:00,51.2,20.0,30.04,West,267,0.0,0.0,29,0.00,,---,0.00,VWS V14.00,2013-03-12 02:04:00,
2013-03-11 19:09:00,49.7,20.3,30.05,West,267,0.0,0.0,31,0.00,,---,0.00,VWS V14.00,2013-03-12 02:09:00,
2013-03-11 19:14:00,48.6,20.8,30.05,West,267,0.0,0.0,33,0.00,,---,0.00,VWS V14.00,2013-03-12 02:14:00,
2013-03-11 19:19:00,47.9,20.2,30.05,West,267,0.0,0.0,33,0.00,,---,0.00,VWS V14.00,2013-03-12 02:19:00,
2013-03-11 19:24:00,47.5,20.5,30.05,West,267,0.0,0.0,34,0.00,,---,0.00,VWS V14.00,2013-03-12 02:24:00,
2013-03-11 19:29:00,48.1,21.1,30.04,West,267,0.0,0.0,34,0.00,,---,0.00,VWS V14.00,2013-03-12 02:29:00,
2013-03-11 19:34:00,48.5,21.4,30.05,West,267,0.0,0.0,34,0.00,,---,0.00,VWS V14.00,2013-03-12 02:34:00,
2013-03-11 19:39:00,48.7,20.9,30.05,West,267,0.0,0.0,33,0.00,,---,0.00,VWS V14.00,2013-03-12 02:39:00,
2013-03-11 19:44:00,48.9,21.1,30.05,West,267,0.0,0.0,33,0.00,,---,0.00,VWS V14.00,2013-03-12 02:44:00,
2013-03-11 19:49:00,48.8,21.0,30.05,West,267,0.0,0.0,33,0.00,,---,0.00,VWS V14.00,2013-03-12 02:49:00,
2013-03-11 19:54:00,48.5,20.7,30.05,West,267,0.0,0.0,33,0.00,,---,0.00,VWS V14.00,2013-03-12 02:54:00,
2013-03-11 19:59:00,48.2,21.9,30.05,West,267,0.0,0.0,35,0.00,,---,0.00,VWS V14.00,2013-03-12 02:59:00,
2013-03-11 20:04:00,48.0,21.0,30.05,West,267,0.0,0.0,34,0.00,,---,0.00,VWS V14.00,2013-03-12 03:04:00,
2013-03-11 20:09:00,48.1,21.1,30.05,West,267,0.0,0.0,34,0.00,,---,0.00,VWS V14.00,2013-03-12 03:09:00,
2013-03-11 20:14:00,48.0,21.0,30.05,West,267,0.0,0.0,34,0.00,,---,0.00,VWS V14.00,2013-03-12 03:14:00,
2013-03-11 20:19:00,47.6,21.3,30.05,West,267,0.0,0.0,35,0.00,,---,0.00,VWS V14.00,2013-03-12 03:19:00,
2013-03-11 20:24:00,47.7,22.1,30.05,West,267,0.0,0.0,36,0.00,,---,0.00,VWS V14.00,2013-03-12 03:24:00,
2013-03-11 20:29:00,47.7,22.1,30.05,West,267,0.0,0.0,36,0.00,,---,0.00,VWS V14.00,2013-03-12 03:29:00,
2013-03-11 20:34:00,47.4,21.8,30.05,West,267,0.0,0.0,36,0.00,,---,0.00,VWS V14.00,2013-03-12 03:34:00,
2013-03-11 20:39:00,46.8,21.9,30.05,West,267,0.0,0.0,37,0.00,,---,0.00,VWS V14.00,2013-03-12 03:39:00,
2013-03-11 20:44:00,45.9,21.1,30.05,West,267,0.0,0.0,37,0.00,,---,0.00,VWS V14.00,2013-03-12 03:44:00,
2013-03-11 20:49:00,44.5,20.5,30.05,West,267,0.0,0.0,38,0.00,,---,0.00,VWS V14.00,2013-03-12 03:49:00,
2013-03-11 20:54:00,42.8,20.2,30.06,West,267,0.0,0.0,40,0.00,,---,0.00,VWS V14.00,2013-03-12 03:54:00,
2013-03-11 20:59:00,41.7,20.9,30.06,West,267,0.0,0.0,43,0.00,,---,0.00,VWS V14.00,2013-03-12 03:59:00,
2013-03-11 21:00:00,41.6,20.2,30.06,West,267,0.0,0.0,42,0.00,,---,0.00,VWS V14.00,2013-03-12 04:00:00,
2013-03-11 21:01:00,41.5,20.7,30.06,West,267,0.0,0.0,43,0.00,,---,0.00,VWS V14.00,2013-03-12 04:01:00,
2013-03-11 21:06:00,41.3,21.6,30.06,West,267,0.0,0.0,45,0.00,,---,0.00,VWS V14.00,2013-03-12 04:06:00,
2013-03-11 21:11:00,41.4,21.7,30.06,West,267,0.0,0.0,45,0.00,,---,0.00,VWS V14.00,2013-03-12 04:11:00,
2013-03-11 21:16:00,40.6,19.9,30.06,West,267,0.0,0.0,43,0.00,,---,0.00,VWS V14.00,2013-03-12 04:16:00,
2013-03-11 21:21:00,38.7,18.1,30.06,West,267,0.0,0.0,43,0.00,,---,0.00,VWS V14.00,2013-03-12 04:21:00,
2013-03-11 21:26:00,37.3,19.4,30.06,West,267,0.0,0.0,48,0.00,,---,0.00,VWS V14.00,2013-03-12 04:26:00,
2013-03-11 21:32:00,36.8,20.4,30.06,West,267,0.0,0.0,51,0.00,,---,0.00,VWS V14.00,2013-03-12 04:32:00,
2013-03-11 21:37:00,36.9,20.5,30.06,West,267,0.0,0.0,51,0.00,,---,0.00,VWS V14.00,2013-03-12 04:37:00,
2013-03-11 21:42:00,36.8,20.8,30.06,West,267,0.0,0.0,52,0.00,,---,0.00,VWS V14.00,2013-03-12 04:42:00,
2013-03-11 21:47:00,36.5,21.0,30.07,West,267,0.0,0.0,53,0.00,,---,0.00,VWS V14.00,2013-03-12 04:47:00,
2013-03-11 21:52:00,36.0,20.5,30.07,West,267,0.0,0.0,53,0.00,,---,0.00,VWS V14.00,2013-03-12 04:52:00,
2013-03-11 21:57:00,36.1,21.5,30.07,West,267,0.0,0.0,55,0.00,,---,0.00,VWS V14.00,2013-03-12 04:57:00,
2013-03-11 22:02:00,36.9,21.8,30.07,West,267,0.0,0.0,54,0.00,,---,0.00,VWS V14.00,2013-03-12 05:02:00,
2013-03-11 22:07:00,36.6,20.2,30.07,West,267,0.0,0.0,51,0.00,,---,0.00,VWS V14.00,2013-03-12 05:07:00,
2013-03-11 22:12:00,36.5,20.6,30.07,West,267,0.0,0.0,52,0.00,,---,0.00,VWS V14.00,2013-03-12 05:12:00,
2013-03-11 22:17:00,35.6,20.6,30.08,West,267,0.0,0.0,54,0.00,,---,0.00,VWS V14.00,2013-03-12 05:17:00,
2013-03-11 22:22:00,34.9,20.0,30.08,West,267,0.0,0.0,54,0.00,,---,0.00,VWS V14.00,2013-03-12 05:22:00,
2013-03-11 22:27:00,34.6,21.0,30.08,West,267,0.0,0.0,57,0.00,,---,0.00,VWS V14.00,2013-03-12 05:27:00,
2013-03-11 22:32:00,34.4,20.8,30.08,West,267,0.0,0.0,57,0.00,,---,0.00,VWS V14.00,2013-03-12 05:32:00,
2013-03-11 22:37:00,34.4,22.4,30.08,West,267,0.0,0.0,61,0.00,,---,0.00,VWS V14.00,2013-03-12 05:37:00,
2013-03-11 22:42:00,34.1,20.1,30.08,West,267,0.0,0.0,56,0.00,,---,0.00,VWS V14.00,2013-03-12 05:42:00,
2013-03-11 22:47:00,33.7,20.5,30.08,West,267,0.0,0.0,58,0.00,,---,0.00,VWS V14.00,2013-03-12 05:47:00,
2013-03-11 22:52:00,33.3,20.9,30.08,West,267,0.0,0.0,60,0.00,,---,0.00,VWS V14.00,2013-03-12 05:52:00,
2013-03-11 22:57:00,34.0,22.4,30.08,West,267,0.0,0.0,62,0.00,,---,0.00,VWS V14.00,2013-03-12 05:57:00,
2013-03-11 23:02:00,35.9,23.4,30.08,West,267,0.0,0.0,60,0.00,,---,0.00,VWS V14.00,2013-03-12 06:02:00,
2013-03-11 23:07:00,37.3,23.5,30.08,West,267,0.0,0.0,57,0.00,,---,0.00,VWS V14.00,2013-03-12 06:07:00,
2013-03-11 23:12:00,38.2,23.9,30.08,West,266,0.0,0.0,56,0.00,,---,0.00,VWS V14.00,2013-03-12 06:12:00,
2013-03-11 23:17:00,39.5,24.2,30.08,West,262,0.0,0.0,54,0.00,,---,0.00,VWS V14.00,2013-03-12 06:17:00,
2013-03-11 23:22:00,40.6,24.8,30.08,WSW,248,0.0,0.0,53,0.00,,---,0.00,VWS V14.00,2013-03-12 06:22:00,
2013-03-11 23:27:00,41.2,24.5,30.08,WSW,248,0.0,0.0,51,0.00,,---,0.00,VWS V14.00,2013-03-12 06:27:00,
2013-03-11 23:32:00,41.3,24.1,30.08,WSW,248,0.0,0.0,50,0.00,,---,0.00,VWS V14.00,2013-03-12 06:32:00,
2013-03-11 23:37:00,41.5,23.8,30.08,WSW,248,0.0,0.0,49,0.00,,---,0.00,VWS V14.00,2013-03-12 06:37:00,
2013-03-11 23:42:00,41.4,23.2,30.08,WSW,248,0.0,0.0,48,0.00,,---,0.00,VWS V14.00,2013-03-12 06:42:00,
2013-03-11 23:47:00,40.2,23.1,30.08,WSW,248,0.0,0.0,50,0.00,,---,0.00,VWS V14.00,2013-03-12 06:47:00,
2013-03-11 23:52:00,39.1,22.5,30.08,WSW,248,0.0,0.0,51,0.00,,---,0.00,VWS V14.00,2013-03-12 06:52:00,
2013-03-11 23:57:00,37.7,22.6,30.08,WSW,248,0.0,0.0,54,0.00,,---,0.00,VWS V14.00,2013-03-12 06:57:00,